Weather History for Ludington, MI

Change the Weather History Date:

Wednesday, March 12, 2014

  Actual Average Record
Temperature  
Mean Temperature 22 °F -  
Max Temperature 34 °F 40 °F 63 °F (1977)
Min Temperature 9 °F 20 °F -4 °F (1980)
Degree Days  
Heating Degree Days 44    
Moisture  
Dew Point 10 °F    
Average Humidity 66    
Maximum Humidity 83    
Minimum Humidity 52    
Precipitation  
Precipitation 0.00 in - - ()
Sea Level Pressure  
Sea Level Pressure 29.93 in    
Wind  
Wind Speed 12 mph (NNE)    
Max Wind Speed 21 mph    
Max Gust Speed 32 mph    
Visibility 10 miles    
Events Snow    
Averages and records for this station are not official NWS values.
T = Trace of Precipitation, MM = Missing Value Source: NWS Daily Summary

Daily Weather History Graph

Daily Weather History Graph

Search for Another Location

Airport:

Trip Planner

Search our weather history database for the weather conditions in past years. The results will help you decide how hot, cold, wet, or windy it might be!

Date:

Astronomy

Mar. 12, 2014 Rise Set
Actual Time 8:03 AM EDT 7:48 PM EDT
Civil Twilight 7:34 AM EDT 8:16 PM EDT
Nautical Twilight 7:01 AM EDT 8:50 PM EDT
Astronomical Twilight 6:27 AM EDT 9:24 PM EDT
Moon 4:12 PM EDT (3/12) 5:40 AM EDT (3/12)
Length of Visible Light 12h 42m
Length of Day
11h 44m
Waxing Gibbous, 85% of the Moon is Illuminated
Mar 12
Waxing Gibbous
Mar 16
Full
Mar 23
Last Quarter
Mar 30
New
Apr 7
First Quarter

Hourly Weather History & Observations

Time (EDT) Temp. Windchill Dew Point Humidity Pressure Visibility Wind Dir Wind Speed Gust Speed Precip Events Conditions
12:14 AM 34.2 °F 25.7 °F 23.7 °F 66% 29.82 in 10.0 mi NE 11.5 mph 21.9 mph N/A   Overcast
12:34 AM 33.6 °F 26.8 °F 23.7 °F 67% 29.83 in 10.0 mi NE 8.1 mph 19.6 mph N/A   Overcast
12:55 AM 32.0 °F 21.2 °F 19.9 °F 61% 29.83 in 10.0 mi NE 16.1 mph 21.9 mph N/A   Overcast
1:14 AM 32.0 °F 22.5 °F 19.0 °F 59% 29.82 in 10.0 mi NE 12.7 mph 25.3 mph N/A   Mostly Cloudy
1:35 AM 31.5 °F 22.3 °F 18.1 °F 58% 29.82 in 10.0 mi NNE 11.5 mph 20.7 mph N/A   Mostly Cloudy
1:54 AM 30.7 °F 20.4 °F 15.8 °F 54% 29.81 in 10.0 mi NE 13.8 mph 21.9 mph N/A   Mostly Cloudy
2:15 AM 30.0 °F 21.1 °F 14.4 °F 52% 29.82 in 10.0 mi NE 10.4 mph 18.4 mph N/A   Scattered Clouds
2:35 AM 29.3 °F 20.8 °F 14.5 °F 54% 29.82 in 10.0 mi NE 9.2 mph - N/A   Clear
2:54 AM 29.3 °F 20.2 °F 15.4 °F 56% 29.81 in 10.0 mi NE 10.4 mph 16.1 mph N/A   Scattered Clouds
3:15 AM 29.3 °F 21.5 °F 16.2 °F 58% 29.81 in 10.0 mi NNE 8.1 mph - N/A   Scattered Clouds
3:35 AM 29.3 °F 20.2 °F 16.3 °F 58% 29.80 in 10.0 mi NE 10.4 mph - N/A   Mostly Cloudy
3:54 AM 29.3 °F 19.6 °F 16.5 °F 59% 29.79 in 10.0 mi NE 11.5 mph 18.4 mph N/A   Mostly Cloudy
4:15 AM 29.3 °F 18.6 °F 16.7 °F 59% 29.79 in 10.0 mi NE 13.8 mph 19.6 mph N/A   Overcast
4:35 AM 29.3 °F 21.5 °F 17.2 °F 61% 29.78 in 10.0 mi NNE 8.1 mph - N/A   Mostly Cloudy
4:54 AM 29.3 °F 20.2 °F 17.1 °F 60% 29.78 in 10.0 mi North 10.4 mph 20.7 mph N/A   Scattered Clouds
5:15 AM 29.3 °F 22.3 °F 17.2 °F 61% 29.78 in 10.0 mi NNE 6.9 mph 16.1 mph N/A   Clear
5:35 AM 29.3 °F 20.8 °F 18.5 °F 64% 29.79 in 10.0 mi NNE 9.2 mph 16.1 mph N/A   Clear
5:54 AM 29.3 °F 20.8 °F 19.2 °F 66% 29.80 in 10.0 mi NNE 9.2 mph - N/A   Clear
6:15 AM 28.9 °F 19.8 °F 20.1 °F 70% 29.82 in 10.0 mi North 10.4 mph 17.3 mph N/A   Clear
6:35 AM 27.0 °F 16.1 °F 19.9 °F 75% 29.83 in 10.0 mi North 12.7 mph 18.4 mph N/A   Clear
6:54 AM 26.1 °F 16.2 °F 20.3 °F 79% 29.83 in 10.0 mi North 10.4 mph 17.3 mph N/A   Clear
7:15 AM 24.4 °F 13.5 °F 18.9 °F 79% 29.84 in 10.0 mi North 11.5 mph 21.9 mph N/A   Clear
7:35 AM 22.5 °F 8.0 °F 18.1 °F 83% 29.84 in 10.0 mi North 18.4 mph 25.3 mph N/A   Scattered Clouds
7:54 AM 21.9 °F 8.2 °F 17.4 °F 83% 29.84 in 10.0 mi North 16.1 mph 25.3 mph N/A   Mostly Cloudy
8:15 AM 20.5 °F 5.5 °F 15.4 °F 81% 29.85 in 10.0 mi North 18.4 mph 29.9 mph N/A   Mostly Cloudy
8:35 AM 19.4 °F 4.1 °F 14.7 °F 82% 29.86 in 10.0 mi North 18.4 mph 26.5 mph N/A   Mostly Cloudy
8:54 AM 19.4 °F 5.5 °F 14.9 °F 83% 29.87 in 10.0 mi North 15.0 mph 26.5 mph N/A   Overcast
9:15 AM 17.6 °F 3.2 °F 12.7 °F 81% 29.88 in 10.0 mi North 15.0 mph 24.2 mph N/A   Overcast
9:34 AM 16.7 °F 1.0 °F 12.0 °F 82% 29.89 in 5.0 mi North 17.3 mph 24.2 mph N/A Snow Light Snow
9:54 AM 16.7 °F 3.8 °F 11.5 °F 80% 29.90 in 7.0 mi North 11.5 mph 27.6 mph N/A Snow Light Snow
10:15 AM 16.7 °F 4.5 °F 11.3 °F 79% 29.91 in 4.0 mi NNE 10.4 mph 27.6 mph N/A Snow Light Snow
10:34 AM 16.7 °F 3.2 °F 10.4 °F 76% 29.91 in 10.0 mi North 12.7 mph 23.0 mph N/A Snow Light Snow
10:54 AM 17.1 °F 0.6 °F 9.5 °F 72% 29.91 in 10.0 mi North 19.6 mph 23.0 mph N/A   Mostly Cloudy
11:15 AM 16.7 °F 2.0 °F 9.0 °F 72% 29.92 in 10.0 mi North 15.0 mph 25.3 mph N/A   Scattered Clouds
11:34 AM 16.7 °F 2.6 °F 7.7 °F 68% 29.92 in 10.0 mi NNE 13.8 mph 25.3 mph N/A   Clear
11:55 AM 16.7 °F 1.0 °F 7.0 °F 66% 29.92 in 10.0 mi North 17.3 mph 24.2 mph N/A   Clear
12:15 PM 17.1 °F 4.3 °F 6.8 °F 64% 29.92 in 10.0 mi North 11.5 mph 21.9 mph N/A   Clear
12:34 PM 16.7 °F 2.0 °F 6.6 °F 65% 29.91 in 10.0 mi NNE 15.0 mph 24.2 mph N/A   Clear
12:55 PM 16.7 °F 2.6 °F 6.6 °F 65% 29.92 in 10.0 mi North 13.8 mph 24.2 mph N/A   Clear
1:15 PM 16.7 °F 2.0 °F 5.4 °F 61% 29.92 in 10.0 mi North 15.0 mph 24.2 mph N/A   Clear
1:34 PM 15.6 °F 0.1 °F 5.4 °F 64% 29.92 in 10.0 mi North 16.1 mph 25.3 mph N/A   Clear
1:55 PM 15.6 °F 0.1 °F 5.9 °F 66% 29.93 in 10.0 mi North 16.1 mph 26.5 mph N/A   Clear
2:15 PM 15.6 °F -0.4 °F 5.5 °F 64% 29.94 in 10.0 mi North 17.3 mph 26.5 mph N/A   Clear
2:34 PM 14.4 °F -2.0 °F 4.3 °F 64% 29.94 in 10.0 mi North 17.3 mph 27.6 mph N/A   Clear
2:55 PM 15.3 °F -1.8 °F 5.0 °F 64% 29.95 in 10.0 mi North 19.6 mph 28.8 mph N/A   Clear
3:15 PM 14.7 °F -2.9 °F 4.8 °F 65% 29.95 in 10.0 mi North 20.7 mph 32.2 mph N/A   Clear
3:34 PM 14.5 °F -2.3 °F 6.4 °F 70% 29.95 in 10.0 mi North 18.4 mph 32.2 mph N/A   Scattered Clouds
3:55 PM 15.8 °F -1.5 °F 6.3 °F 66% 29.96 in 10.0 mi North 20.7 mph 27.6 mph N/A   Scattered Clouds
4:15 PM 15.4 °F 0.4 °F 6.6 °F 68% 29.96 in 10.0 mi North 15.0 mph 26.5 mph N/A   Clear
4:34 PM 15.6 °F -1.8 °F 6.3 °F 67% 29.97 in 10.0 mi North 20.7 mph 27.6 mph N/A   Clear
4:55 PM 15.6 °F -1.3 °F 5.5 °F 64% 29.98 in 10.0 mi North 19.6 mph 29.9 mph N/A   Clear
5:15 PM 15.6 °F -0.4 °F 6.8 °F 68% 29.99 in 10.0 mi North 17.3 mph 31.1 mph N/A   Clear
5:34 PM 15.6 °F -1.8 °F 5.9 °F 66% 30.00 in 10.0 mi North 20.7 mph 28.8 mph N/A   Clear
5:55 PM 15.6 °F -0.9 °F 5.5 °F 64% 30.00 in 10.0 mi North 18.4 mph 25.3 mph N/A   Clear
6:14 PM 15.4 °F -0.1 °F 5.2 °F 64% 30.01 in 10.0 mi North 16.1 mph 28.8 mph N/A   Clear
6:34 PM 15.6 °F -0.4 °F 5.0 °F 63% 30.02 in 10.0 mi North 17.3 mph 25.3 mph N/A   Clear
6:55 PM 15.1 °F 2.5 °F 5.0 °F 64% 30.04 in 10.0 mi North 10.4 mph 21.9 mph N/A   Clear
7:14 PM 14.4 °F 1.6 °F 3.9 °F 63% 30.04 in 10.0 mi NNE 10.4 mph 20.7 mph N/A   Clear
7:34 PM 14.4 °F -2.0 °F 4.6 °F 65% 30.05 in 10.0 mi North 17.3 mph 21.9 mph N/A   Scattered Clouds
7:54 PM 14.4 °F -0.4 °F 4.1 °F 64% 30.06 in 10.0 mi North 13.8 mph - N/A   Scattered Clouds
8:14 PM 14.4 °F 1.6 °F 3.6 °F 62% 30.07 in 10.0 mi North 10.4 mph 16.1 mph N/A   Clear
8:35 PM 14.4 °F 2.4 °F 2.8 °F 60% 30.08 in 10.0 mi North 9.2 mph 17.3 mph N/A   Clear
8:54 PM 14.4 °F 3.3 °F 2.3 °F 59% 30.08 in 10.0 mi North 8.1 mph - N/A   Clear
9:14 PM 14.4 °F 4.3 °F 3.2 °F 61% 30.08 in 10.0 mi NNE 6.9 mph - N/A   Clear
9:35 PM 14.4 °F 5.5 °F 3.2 °F 61% 30.09 in 10.0 mi North 5.8 mph - N/A   Clear
9:54 PM 12.0 °F 5.9 °F 2.1 °F 65% 30.09 in 10.0 mi ENE 3.5 mph - N/A   Clear
10:14 PM 11.8 °F 3.9 °F 2.8 °F 67% 30.10 in 10.0 mi NE 4.6 mph - N/A   Clear
10:35 PM 11.1 °F - 1.8 °F 66% 30.10 in 10.0 mi Calm Calm - N/A   Clear
10:54 PM 10.4 °F - 1.4 °F 67% 30.10 in 10.0 mi Calm Calm - N/A   Clear
11:14 PM 9.7 °F 3.2 °F 0.1 °F 65% 30.11 in 10.0 mi NNE 3.5 mph - N/A   Clear
11:35 PM 9.3 °F - -0.2 °F 65% 30.11 in 10.0 mi Calm Calm - N/A   Clear
11:54 PM 9.3 °F - 0.5 °F 67% 30.10 in 10.0 mi Calm Calm - N/A   Clear